Kankakee, IL

8:49 PM CDT on March 25, 2017 (GMT -0500)
Greater Kankakee

Weather History for KIKK - April, 2012

Change the Weather History Date:

Tuesday, April 10, 2012

  Actual Average Record
Temperature  
Mean Temperature 39 °F -  
Max Temperature 50 °F 54 °F 84 °F (2011)
Min Temperature 29 °F 33 °F 21 °F (1989)
Degree Days  
Heating Degree Days 26    
Moisture  
Dew Point 20 °F    
Average Humidity 45    
Maximum Humidity 75    
Minimum Humidity 27    
Precipitation  
Precipitation 0.00 in - - ()
Sea Level Pressure  
Sea Level Pressure 30.09 in    
Wind  
Wind Speed 8 mph (NW)    
Max Wind Speed 22 mph    
Max Gust Speed 31 mph    
Visibility 10 miles    
Events      
Averages and records for this station are not official NWS values.
T = Trace of Precipitation, MM = Missing Value Source: NWS Daily Summary

Daily Weather History Graph

Daily Weather History Graph

Search for Another Location

Airport or City:

Trip Planner

Search our weather history database for the weather conditions in past years. The results will help you decide how hot, cold, wet, or windy it might be!

Date:

Astronomy

Apr. 10, 2012 Rise Set
Actual Time 6:19 AM CDT 7:26 PM CDT
Civil Twilight 5:51 AM CDT 7:54 PM CDT
Nautical Twilight 5:17 AM CDT 8:28 PM CDT
Astronomical Twilight 4:42 AM CDT 9:04 PM CDT
Moon No Moon Rise 9:01 AM CDT (4/10)
Length of Visible Light 14h 03m
Length of Day
13h 07m
Waning Gibbous, 79% of the Moon is Illuminated
Apr 10
Waning Gibbous
Apr 13
Last Quarter
Apr 21
New
Apr 29
First Quarter
May 5
Full

Hourly Weather History & Observations

Time (CDT) Temp. Windchill Dew Point Humidity Pressure Visibility Wind Dir Wind Speed Gust Speed Precip Events Conditions
12:15 AM 45.7 °F 43.4 °F 19.6 °F 35% 30.02 in 10.0 mi WNW 4.6 mph - N/A   Clear
12:35 AM 44.6 °F 43.1 °F 20.3 °F 38% 30.03 in 10.0 mi WNW 3.5 mph - N/A   Clear
12:55 AM 43.7 °F 40.3 °F 21.0 °F 41% 30.03 in 10.0 mi North 5.8 mph - N/A   Clear
1:15 AM 41.4 °F 38.4 °F 26.2 °F 55% 30.04 in 10.0 mi North 4.6 mph - N/A   Clear
1:35 AM 40.5 °F 38.4 °F 26.6 °F 58% 30.04 in 10.0 mi NNE 3.5 mph - N/A   Clear
1:55 AM 39.9 °F - 27.7 °F 62% 30.04 in 10.0 mi Calm Calm - N/A   Clear
2:15 AM 37.9 °F - 27.9 °F 67% 30.05 in 10.0 mi Calm Calm - N/A   Clear
2:35 AM 38.3 °F - 28.4 °F 68% 30.06 in 10.0 mi Calm Calm - N/A   Clear
2:55 AM 38.7 °F - 29.1 °F 69% 30.06 in 10.0 mi Calm Calm - N/A   Clear
3:15 AM 38.3 °F 34.8 °F 29.1 °F 70% 30.07 in 10.0 mi WNW 4.6 mph - N/A   Clear
3:35 AM 37.9 °F 33.5 °F 26.8 °F 64% 30.07 in 10.0 mi NW 5.8 mph - N/A   Clear
3:55 AM 39.2 °F 33.0 °F 23.0 °F 52% 30.07 in 10.0 mi NNW 9.2 mph - N/A   Clear
4:15 AM 38.3 °F 33.2 °F 21.6 °F 51% 30.07 in 10.0 mi NNW 6.9 mph - N/A   Clear
4:35 AM 37.4 °F 32.1 °F 21.2 °F 52% 30.07 in 10.0 mi NW 6.9 mph - N/A   Clear
4:55 AM 36.9 °F 31.4 °F 21.2 °F 53% 30.07 in 10.0 mi NW 6.9 mph - N/A   Clear
5:15 AM 36.7 °F 30.5 °F 21.0 °F 53% 30.07 in 10.0 mi NW 8.1 mph - N/A   Clear
5:35 AM 35.8 °F 33.0 °F 21.4 °F 56% 30.08 in 10.0 mi NW 3.5 mph - N/A   Clear
5:55 AM 34.9 °F 29.9 °F 21.7 °F 59% 30.09 in 10.0 mi NW 5.8 mph - N/A   Clear
6:15 AM 34.7 °F 28.8 °F 21.7 °F 59% 30.09 in 10.0 mi NW 6.9 mph - N/A   Clear
6:35 AM 34.7 °F 28.8 °F 21.2 °F 58% 30.09 in 10.0 mi NW 6.9 mph - N/A   Clear
6:55 AM 34.9 °F 29.0 °F 21.4 °F 58% 30.09 in 10.0 mi WNW 6.9 mph - N/A   Clear
7:15 AM 36.0 °F 29.0 °F 21.2 °F 55% 30.09 in 10.0 mi WNW 9.2 mph 16.1 mph N/A   Clear
7:35 AM 37.0 °F 28.1 °F 20.8 °F 52% 30.09 in 10.0 mi West 15.0 mph 18.4 mph N/A   Clear
7:55 AM 38.1 °F 30.7 °F 20.3 °F 49% 30.09 in 10.0 mi WNW 11.5 mph 17.3 mph N/A   Clear
8:15 AM 39.0 °F 31.8 °F 19.6 °F 46% 30.09 in 10.0 mi WNW 11.5 mph 17.3 mph N/A   Clear
8:35 AM 39.0 °F 30.3 °F 16.7 °F 40% 30.09 in 10.0 mi NW 16.1 mph 29.9 mph N/A   Clear
8:55 AM 39.4 °F 32.3 °F 17.1 °F 41% 30.09 in 10.0 mi WNW 11.5 mph 23.0 mph N/A   Clear
9:15 AM 39.7 °F 32.3 °F 17.6 °F 41% 30.10 in 10.0 mi NW 12.7 mph 26.5 mph N/A   Clear
9:35 AM 41.0 °F 32.8 °F 17.6 °F 39% 30.10 in 10.0 mi WNW 16.1 mph 29.9 mph N/A   Clear
9:55 AM 41.0 °F 31.9 °F 15.8 °F 36% 30.10 in 10.0 mi WNW 19.6 mph 29.9 mph N/A   Clear
10:15 AM 41.9 °F 33.4 °F 15.6 °F 35% 30.10 in 10.0 mi WNW 18.4 mph 25.3 mph N/A   Clear
10:35 AM 42.4 °F 34.4 °F 15.6 °F 34% 30.10 in 10.0 mi NW 17.3 mph 29.9 mph N/A   Clear
10:55 AM 43.9 °F 35.9 °F 16.5 °F 33% 30.10 in 10.0 mi WNW 18.4 mph 23.0 mph N/A   Clear
11:15 AM 44.1 °F 36.5 °F 16.0 °F 32% 30.10 in 10.0 mi NW 17.3 mph 27.6 mph N/A   Clear
11:35 AM 44.6 °F 37.2 °F 15.3 °F 31% 30.09 in 10.0 mi NW 17.3 mph 27.6 mph N/A   Clear
11:55 AM 45.3 °F 38.4 °F 15.3 °F 30% 30.09 in 10.0 mi NW 16.1 mph 27.6 mph N/A   Clear
12:15 PM 45.7 °F 38.0 °F 15.8 °F 30% 30.09 in 10.0 mi WNW 19.6 mph 24.2 mph N/A   Clear
12:35 PM 46.8 °F - 16.2 °F 29% 30.09 in 10.0 mi WNW 21.9 mph 31.1 mph N/A   Clear
12:55 PM 47.1 °F - 16.2 °F 29% 30.09 in 10.0 mi NW 17.3 mph 21.9 mph N/A   Scattered Clouds
1:15 PM 47.3 °F - 15.8 °F 28% 30.09 in 10.0 mi NW 21.9 mph 31.1 mph N/A   Scattered Clouds
1:35 PM 47.7 °F - 16.5 °F 29% 30.09 in 10.0 mi WNW 16.1 mph 26.5 mph N/A   Scattered Clouds
1:55 PM 48.2 °F - 17.6 °F 30% 30.08 in 10.0 mi WNW 16.1 mph 25.3 mph N/A   Scattered Clouds
2:15 PM 48.4 °F - 16.3 °F 28% 30.08 in 10.0 mi NW 15.0 mph 29.9 mph N/A   Mostly Cloudy
2:35 PM 49.3 °F - 16.2 °F 27% 30.07 in 10.0 mi NW 21.9 mph 29.9 mph N/A   Mostly Cloudy
2:55 PM 47.8 °F - 15.4 °F 27% 30.07 in 10.0 mi NW 15.0 mph 28.8 mph N/A   Mostly Cloudy
3:15 PM 47.7 °F - 16.2 °F 28% 30.07 in 10.0 mi NW 13.8 mph 27.6 mph N/A   Mostly Cloudy
3:35 PM 47.3 °F - 15.8 °F 28% 30.08 in 10.0 mi NW 18.4 mph 29.9 mph N/A   Overcast
3:55 PM 49.8 °F - 17.2 °F 27% 30.08 in 10.0 mi WNW 13.8 mph 28.8 mph N/A   Overcast
4:15 PM 48.4 °F - 16.5 °F 28% 30.08 in 10.0 mi NW 15.0 mph 23.0 mph N/A   Overcast
4:35 PM 48.7 °F - 16.5 °F 28% 30.08 in 10.0 mi NW 12.7 mph 28.8 mph N/A   Overcast
4:55 PM 49.1 °F - 16.9 °F 28% 30.08 in 10.0 mi NW 12.7 mph 23.0 mph N/A   Mostly Cloudy
5:15 PM 48.6 °F - 16.7 °F 28% 30.08 in 10.0 mi NW 10.4 mph 18.4 mph N/A   Scattered Clouds
5:35 PM 48.2 °F - 16.7 °F 29% 30.09 in 10.0 mi NW 11.5 mph 21.9 mph N/A   Scattered Clouds
5:55 PM 47.5 °F - 16.3 °F 29% 30.09 in 10.0 mi NW 12.7 mph 24.2 mph N/A   Clear
6:15 PM 47.3 °F - 16.3 °F 29% 30.09 in 10.0 mi NW 12.7 mph 24.2 mph N/A   Clear
6:35 PM 46.4 °F 41.1 °F 16.3 °F 30% 30.09 in 10.0 mi NNW 11.5 mph 19.6 mph N/A   Clear
6:55 PM 45.9 °F 40.8 °F 16.7 °F 31% 30.09 in 10.0 mi NNW 10.4 mph 18.4 mph N/A   Clear
7:15 PM 44.8 °F 41.0 °F 16.9 °F 33% 30.10 in 10.0 mi NNW 6.9 mph 16.1 mph N/A   Clear
7:35 PM 43.0 °F 38.2 °F 16.9 °F 35% 30.10 in 10.0 mi NNE 8.1 mph - N/A   Clear
7:55 PM 40.6 °F 34.3 °F 19.2 °F 42% 30.11 in 10.0 mi NE 10.4 mph 16.1 mph N/A   Clear
8:15 PM 38.3 °F 31.9 °F 21.7 °F 51% 30.12 in 10.0 mi NE 9.2 mph - N/A   Clear
8:35 PM 36.5 °F 31.0 °F 22.3 °F 56% 30.13 in 10.0 mi NE 6.9 mph - N/A   Clear
8:55 PM 35.6 °F 31.7 °F 22.5 °F 59% 30.13 in 10.0 mi NE 4.6 mph - N/A   Clear
9:15 PM 34.7 °F 31.8 °F 22.6 °F 61% 30.14 in 10.0 mi ENE 3.5 mph - N/A   Clear
9:35 PM 34.5 °F - 22.1 °F 61% 30.14 in 10.0 mi Calm Calm - N/A   Clear
9:55 PM 33.8 °F - 22.6 °F 64% 30.14 in 10.0 mi Calm Calm - N/A   Clear
10:15 PM 33.4 °F - 22.8 °F 65% 30.14 in 10.0 mi Calm Calm - N/A   Clear
10:35 PM 32.0 °F - 22.5 °F 68% 30.14 in 10.0 mi Calm Calm - N/A   Clear
10:55 PM 31.6 °F - 23.0 °F 70% 30.14 in 10.0 mi Calm Calm - N/A   Clear
11:15 PM 29.7 °F - 22.6 °F 75% 30.14 in 10.0 mi Calm Calm - N/A   Clear
11:35 PM 30.4 °F - 22.6 °F 73% 30.14 in 10.0 mi Calm Calm - N/A   Clear
11:55 PM 30.2 °F - 23.0 °F 75% 30.15 in 10.0 mi Calm Calm - N/A   Clear